Home   Weather   Bursa   Past weeks

Flag for Turkey Past Weather in Bursa, Turkey — Yesterday and Last 2 Weeks

Now
47 °F

Passing clouds.


Feels Like: 45 °F
Forecast: 42 / 53 °F
Wind: 5 mph from Northeast

Location: Bursa

Current Time: Jan 17, 2017 at 10:41:51 pm

Latest Report: Jan 17, 2017 at 9:00 pm


Visibility: 6 mi

Pressure: 30.03 "Hg

Humidity: 97%

Dew Point: 46 °F

Location of BursaLocation

Past Weather in Bursa — Graph

°F

Bursa Temperature Yesterday

Maximum temperature yesterday: 47 °F (at 9:00 pm)
Minimum temperature yesterday: 40 °F (at 1:00 am)
Average temperature yesterday: 43 °F

High & Low Weather Summary for the Past Weeks

 TemperatureHumidityPressure
High65 °F (Jan 6, 3:00 pm)100% (Jan 7, 12:00 am)30.25 "Hg (Jan 7, 12:00 am)
Low22 °F (Jan 8, 6:00 am)36% (Jan 6, 3:00 pm)29.56 "Hg (Jan 6, 2:00 pm)
Average41 °F76%29.98 "Hg
* Reported Jan 2 9:00 pm — Jan 17 9:00 pm, Bursa, Weather by CustomWeather, © 2017

Note: Actual official high and low records may vary slightly from our data, if they occured in-between our weather recording intervals... More about our weather records

Advertising

Bursa Weather History for the Previous 24 Hours

Scroll right to see more
 ConditionsComfort  
Time TempWeatherWind HumidityBarometerVisibility
9:00 pm
Tue, Jan 17
47 °FPassing clouds.5 mph97%30.03 "Hg6 mi
8:00 pm47 °FFog.2 mph99%30.04 "Hg4 mi
7:00 pm47 °FFog.3 mph99%30.04 "Hg4 mi
6:00 pm47 °FPartly sunny.2 mph98%30.05 "Hg6 mi
5:00 pm48 °FOvercast.3 mph96%30.05 "Hg6 mi
4:00 pm48 °FSprinkles. Overcast.3 mph97%30.05 "Hg4 mi
3:00 pm47 °FSprinkles. Overcast.3 mph97%30.04 "Hg4 mi
2:00 pm47 °FSprinkles. Overcast.2 mph97%30.05 "Hg4 mi
1:00 pm48 °FSprinkles. Overcast.2 mph93%30.07 "Hg4 mi
12:00 pm46 °FOvercast.2 mph93%30.08 "Hg6 mi
11:00 am49 °FSprinkles. Overcast.3 mph76%30.08 "Hg5 mi
10:00 am45 °FPartly sunny.3 mph87%30.06 "Hg6 mi
9:00 am44 °FPartly sunny.3 mph88%30.04 "Hg6 mi
6:00 am42 °FPassing clouds.5 mph92%30.04 "Hg6 mi
3:00 am46 °FPassing clouds.5 mph85%30.03 "Hg6 mi
12:00 am44 °FPassing clouds.1 mph96%30.01 "Hg6 mi
Weather by CustomWeather, © 2017

See weather overviewHow to use our weather pages